[[{"header":{"parameterUnit":"m.s-1","parameterCategory":1,"la1":30.2991,"la2":30.254,"lo1":-89.0895,"lo2":-89.0444,"dy":0.0017,"dx":0.0017,"nx":28,"ny":28,"refTime":"2025-07-12T03:00:00:Z","depth":0,"parameterNumber":2,"parameterNumberName":"U-component_of_WINDS"},"data":[0,0,0,0,0,0,0,0,0,0,0,0,0,0,0,0,0,0,0,0,0,0,0,0,0,0,0,0,0,0,0,0,0,0,0,0,0,0,0,0,0,0,0,0,0,0,0,0,0,0,0,0,0,0,0,0,0,0,1.1433,1.1435,0,1.1603,1.1605,1.1607,1.1673,1.1673,1.1672,1.1672,1.1846,1.1851,1.1856,0,0,0,0,0,0,0,0,0,0,0,0,0,1.1164,1.1169,1.1433,1.1435,1.1437,1.1603,1.1605,1.1608,1.1673,1.1673,1.1672,1.1671,1.1844,1.185,1.1856,0,0,0,0,0,0,0,0,0,0,0,0,0,1.1302,1.117,1.1433,1.149,1.1497,1.1603,1.1606,1.1608,1.1673,1.1673,1.1672,1.1671,1.1842,1.185,1.1857,1.1919,0,0,1.1881,1.1884,0,0,0,0,0,0,0,0,1.1294,1.1312,1.1479,1.1486,1.1494,1.1616,1.1575,1.1712,1.1673,1.1606,1.1672,1.1671,1.177,1.1784,1.1817,1.1927,1.1934,1.1881,1.1886,1.1889,1.1891,0,0,0,0,0,0,0,1.1285,1.1305,1.15,1.1482,1.1491,1.1507,1.1526,1.1601,1.169,1.1612,1.1617,1.1636,1.1774,1.181,1.1822,1.1937,1.1881,1.1888,1.1893,1.1895,1.2105,1.2106,0,0,0,0,0,0,1.1266,1.1297,1.1495,1.1506,1.139,1.1512,1.1533,1.1578,1.1689,1.1706,1.1637,1.1639,1.1797,1.1813,1.1828,1.1907,1.1889,1.1896,1.1901,1.2104,1.2105,1.2107,0,0,0,0,0,0,1.126,1.1283,1.1488,1.1403,1.143,1.1518,1.1567,1.1581,1.1617,1.1708,1.1724,1.1657,1.1797,1.1817,1.1896,1.1914,1.19,1.1907,1.2103,1.2105,1.2106,1.2065,0,0,0,0,0,0,1.1252,1.128,1.1304,1.1403,1.1434,1.1553,1.1568,1.1585,1.163,1.1634,1.1731,1.1747,1.1798,1.1884,1.1903,1.1924,1.1913,1.2102,1.2104,1.2106,1.2065,1.2065,1.2065,0,0,0,0,0,1.1242,1.1286,1.1305,1.1329,1.1467,1.1554,1.1572,1.163,1.1631,1.1656,1.1715,1.1744,1.1909,1.1891,1.1914,1.1937,1.2101,1.2103,1.2105,1.2066,1.2065,1.2065,0,0,0,0,0,0,1.1188,1.13,1.1323,1.14,1.1467,1.1565,1.1598,1.1628,1.1695,1.1696,1.1766,1.1787,1.1859,1.1907,1.1885,1.2002,1.2007,1.2014,1.1969,1.197,1.1969,1.1956,1.1919,0,0,0,0,0,1.1185,1.1246,1.1341,1.1401,1.1433,1.1509,1.155,1.1589,1.166,1.1689,1.1753,1.1822,1.1889,1.1932,1.1999,1.2073,1.2095,1.21,1.21,1.2099,1.2104,1.2146,1.2149,1.2114,1.2114,1.2114,0,0,1.118,1.1249,1.1283,1.1392,1.1448,1.151,1.1533,1.1597,1.1644,1.1699,1.1776,1.1826,1.1907,1.1983,1.202,1.2024,1.2119,1.2102,1.2101,1.2106,1.2149,1.2152,1.2155,1.2115,1.2115,1.2115,0,0,1.1202,1.126,1.1316,1.1372,1.1457,1.1507,1.152,1.1614,1.1649,1.1728,1.177,1.1826,1.1941,1.1997,1.204,1.2083,1.2112,1.2103,1.2102,1.2142,1.2145,1.2148,1.2163,1.2167,1.2108,1.2108,1.2108,0,1.1184,1.1279,1.1341,1.1403,1.1449,1.1502,1.1558,1.161,1.1712,1.1742,1.1746,1.1891,1.195,1.2039,1.2049,1.2083,1.21,1.2092,1.214,1.2143,1.2147,1.2162,1.2167,1.2106,1.2106,1.2107,1.2107,0,1.1254,1.1319,1.1354,1.1451,1.1501,1.156,1.163,1.1674,1.1708,1.1758,1.1838,1.191,1.1992,1.2016,1.2051,1.2111,1.2111,1.2126,1.2132,1.2147,1.2163,1.2169,1.2104,1.2104,1.2105,1.2105,0,0,1.1246,1.1377,1.1388,1.1433,1.153,1.1582,1.1643,1.1724,1.1759,1.1828,1.1881,1.1977,1.1992,1.2041,1.2082,1.2117,1.2146,1.2129,1.2132,1.2129,1.2216,1.2203,1.2209,1.2166,1.2167,1.2168,1.2209,0,1.128,1.1393,1.145,1.1537,1.1598,1.1649,1.1702,1.1767,1.1816,1.1874,1.1928,1.1994,1.2009,1.2039,1.2076,1.2134,1.2164,1.2132,1.2215,1.2218,1.2193,1.2217,1.2204,1.2239,1.2215,1.2216,1.2217,0,1.1336,1.1404,1.1497,1.1587,1.1615,1.1662,1.174,1.1796,1.1871,1.1904,1.1958,1.1998,1.2065,1.2066,1.2158,1.2135,1.2173,1.2206,1.2209,1.2219,1.2218,1.2227,1.2252,1.2256,1.2227,1.2226,1.2226,0,1.132,1.1435,1.1506,1.1543,1.165,1.1682,1.1728,1.1802,1.1847,1.1915,1.1945,1.202,1.2061,1.2118,1.2177,1.2173,1.2263,1.227,1.2292,1.2291,1.2309,1.2307,1.2339,1.2333,1.2333,1.2333,1.2333,0,1.1352,1.1407,1.15,1.1544,1.1607,1.1672,1.1733,1.1782,1.1848,1.1902,1.1951,1.2,1.2076,1.2135,1.2182,1.2251,1.2269,1.2297,1.2309,1.2293,1.2289,1.2318,1.2317,1.2335,1.2334,1.2334,1.2334,0,1.1345,1.141,1.149,1.1585,1.161,1.1652,1.1733,1.1777,1.1828,1.1896,1.1915,1.1995,1.2067,1.2132,1.2227,1.2259,1.2329,1.2344,1.2303,1.231,1.2329,1.2326,1.2381,1.2391,1.2378,1.2378,1.2378,0,1.1361,1.1405,1.1504,1.1544,1.1589,1.1652,1.1698,1.1763,1.1809,1.1898,1.1931,1.2006,1.207,1.2182,1.2249,1.2322,1.2339,1.2353,1.235,1.2332,1.2339,1.2335,1.234,1.2352,1.2352,1.2352,1.2352,0,1.1382,1.1412,1.1477,1.1552,1.1605,1.1668,1.1732,1.1761,1.1839,1.1888,1.1962,1.2011,1.2109,1.2183,1.2263,1.2311,1.2344,1.2352,1.2361,1.2345,1.2319,1.2333,1.2301,1.2351,1.2351,1.2351,1.2351,1.2351,1.1387,1.1428,1.1505,1.1575,1.163,1.1688,1.1734,1.1791,1.1854,1.1938,1.1973,1.2048,1.2122,1.2233,1.2281,1.234,1.2347,1.236,1.2363,1.2365,1.2362,1.231,1.2355,1.2355,1.2355,1.2356,1.2356,0,1.1411,1.1463,1.1526,1.1614,1.1669,1.1696,1.1768,1.1812,1.1878,1.1944,1.2005,1.209,1.2162,1.2234,1.231,1.2344,1.2361,1.2362,1.236,1.237,1.2352,1.2337,1.2347,1.2347,1.2347,1.2346,1.2346,1.2346,1.143,1.15,1.1539,1.1637,1.1689,1.1763,1.1802,1.1856,1.1909,1.2001,1.2062,1.2108,1.2177,1.2258,1.2325,1.2345,1.237,1.2366,1.2389,1.2371,1.2371,1.2371,1.2357,1.2371,1.2371,1.2403,1.2403,1.2403]},{"header":{"parameterUnit":"m.s-1","parameterCategory":1,"la1":30.2991,"la2":30.254,"lo1":-89.0895,"lo2":-89.0444,"dy":0.0017,"dx":0.0017,"nx":28,"ny":28,"refTime":"2025-07-12T03:00:00:Z","depth":0,"parameterNumber":3,"parameterNumberName":"V-component_of_WINDS"},"data":[0,0,0,0,0,0,0,0,0,0,0,0,0,0,0,0,0,0,0,0,0,0,0,0,0,0,0,0,0,0,0,0,0,0,0,0,0,0,0,0,0,0,0,0,0,0,0,0,0,0,0,0,0,0,0,0,0,0,3.606,3.6059,0,3.5981,3.598,3.5979,3.5907,3.5906,3.5905,3.5904,3.5818,3.5817,3.5815,0,0,0,0,0,0,0,0,0,0,0,0,0,3.6145,3.6144,3.606,3.6059,3.6058,3.5981,3.598,3.5979,3.5907,3.5906,3.5905,3.5904,3.5819,3.5817,3.5815,0,0,0,0,0,0,0,0,0,0,0,0,0,3.6091,3.6143,3.606,3.6013,3.6008,3.5981,3.598,3.5978,3.5907,3.5906,3.5904,3.5903,3.5819,3.5817,3.5815,3.5827,0,0,3.5808,3.5807,0,0,0,0,0,0,0,0,3.6094,3.6088,3.6021,3.6016,3.6011,3.5952,3.5978,3.5927,3.5907,3.5945,3.5904,3.5903,3.5864,3.5858,3.5845,3.5823,3.5819,3.5808,3.5806,3.5806,3.5805,0,0,0,0,0,0,0,3.6098,3.6091,3.6028,3.602,3.6014,3.5994,3.5985,3.5968,3.5912,3.5942,3.5936,3.5928,3.586,3.5848,3.5843,3.5818,3.5808,3.5806,3.5805,3.5804,3.58,3.5801,0,0,0,0,0,0,3.6109,3.6094,3.6031,3.6026,3.605,3.5994,3.5984,3.5972,3.5912,3.5902,3.5929,3.5925,3.5852,3.5846,3.584,3.5849,3.5806,3.5803,3.5802,3.5799,3.58,3.5802,0,0,0,0,0,0,3.6112,3.6104,3.6034,3.6059,3.6048,3.5994,3.5981,3.5971,3.5959,3.5903,3.5892,3.5927,3.5851,3.5843,3.5831,3.5845,3.5802,3.58,3.5797,3.5799,3.5801,3.5869,0,0,0,0,0,0,3.6114,3.6106,3.6111,3.6059,3.6047,3.6028,3.5982,3.5971,3.5955,3.5949,3.5898,3.5888,3.5849,3.5834,3.5828,3.5841,3.5799,3.5796,3.5798,3.58,3.5865,3.5873,3.588,0,0,0,0,0,3.6118,3.6132,3.6111,3.6104,3.6053,3.6029,3.6022,3.5978,3.5957,3.5961,3.5925,3.589,3.5845,3.5834,3.5826,3.5839,3.5795,3.5797,3.58,3.5862,3.5871,3.5879,0,0,0,0,0,0,3.6185,3.6124,3.6101,3.6099,3.607,3.6017,3.6021,3.599,3.5965,3.596,3.5905,3.5894,3.5888,3.5862,3.5851,3.5847,3.5815,3.5816,3.5864,3.5873,3.588,3.5886,3.5797,0,0,0,0,0,3.62,3.6187,3.6134,3.6138,3.6125,3.6076,3.6064,3.6033,3.6,3.5986,3.595,3.5918,3.5896,3.5883,3.586,3.5861,3.5848,3.5866,3.5873,3.5879,3.5881,3.5879,3.5886,3.5811,3.5811,3.5811,0,0,3.623,3.6195,3.619,3.6151,3.6125,3.6112,3.6066,3.6054,3.6043,3.5984,3.5971,3.5943,3.5903,3.5898,3.5894,3.5876,3.5899,3.5883,3.5888,3.5886,3.5883,3.589,3.5896,3.5813,3.5812,3.5812,0,0,3.6278,3.6251,3.6252,3.6226,3.6188,3.6155,3.6155,3.6107,3.6086,3.6073,3.6028,3.6014,3.5978,3.5952,3.5934,3.5972,3.5938,3.5966,3.6004,3.6002,3.6008,3.6013,3.6027,3.6032,3.5968,3.5968,3.5968,0,3.632,3.63,3.6255,3.6246,3.623,3.6177,3.6176,3.6154,3.6109,3.6098,3.6079,3.6034,3.6003,3.5991,3.6,3.5988,3.5985,3.5972,3.6011,3.6016,3.602,3.6032,3.6037,3.5972,3.5972,3.5971,3.5971,0,3.6354,3.634,3.6345,3.6305,3.6289,3.6284,3.6237,3.6225,3.6196,3.6165,3.6151,3.6113,3.6081,3.6076,3.6046,3.6059,3.6049,3.6022,3.5988,3.6032,3.6042,3.6046,3.5977,3.5976,3.5975,3.5974,0,0,3.6442,3.6377,3.638,3.6361,3.6315,3.6303,3.6295,3.6266,3.6257,3.6228,3.6219,3.619,3.6165,3.6144,3.6111,3.611,3.6143,3.6082,3.608,3.6094,3.6154,3.6175,3.6181,3.612,3.6121,3.6121,3.6157,0,3.6482,3.6467,3.6426,3.6423,3.6409,3.636,3.6353,3.6323,3.6293,3.6276,3.6243,3.6223,3.6191,3.6179,3.6176,3.614,3.6154,3.6136,3.611,3.611,3.6122,3.6186,3.6208,3.6244,3.6161,3.6161,3.6162,0,3.6527,3.6503,3.6499,3.6453,3.6446,3.6441,3.6411,3.6396,3.636,3.6339,3.6317,3.628,3.6268,3.6237,3.6219,3.6208,3.6195,3.6175,3.6176,3.6171,3.6138,3.6183,3.6254,3.6259,3.6168,3.6167,3.6167,0,3.6592,3.6558,3.6551,3.6536,3.6483,3.648,3.6458,3.6421,3.6406,3.6379,3.6369,3.634,3.6324,3.6302,3.6259,3.6241,3.6245,3.6211,3.6225,3.6227,3.6228,3.6229,3.6298,3.6221,3.622,3.622,3.622,0,3.6641,3.664,3.6579,3.6575,3.6573,3.6525,3.6523,3.6496,3.6464,3.6452,3.6406,3.6396,3.6339,3.6322,3.6288,3.6277,3.627,3.6252,3.6242,3.6256,3.6258,3.6246,3.6242,3.6222,3.6221,3.6221,3.6221,0,3.6712,3.6672,3.6661,3.6612,3.6599,3.66,3.6557,3.655,3.6518,3.6504,3.6498,3.6447,3.6424,3.6379,3.6343,3.632,3.6317,3.6301,3.633,3.6324,3.6341,3.634,3.6404,3.641,3.633,3.6331,3.6332,0,3.6746,3.6745,3.6696,3.6686,3.6666,3.665,3.6635,3.6587,3.6573,3.6533,3.6531,3.6505,3.6482,3.6448,3.6407,3.6379,3.6361,3.6386,3.6357,3.637,3.6361,3.6362,3.6361,3.6392,3.6393,3.6394,3.6395,0,3.6811,3.6791,3.6772,3.6746,3.673,3.6706,3.668,3.6674,3.6621,3.6607,3.6584,3.6566,3.6531,3.6505,3.6471,3.6446,3.6411,3.6405,3.6406,3.642,3.6437,3.6427,3.6347,3.6403,3.6402,3.6402,3.6401,3.6401,3.6864,3.6861,3.6826,3.6806,3.6782,3.6759,3.6751,3.6718,3.6699,3.6667,3.664,3.662,3.6583,3.6535,3.6512,3.6494,3.6477,3.648,3.648,3.6482,3.6487,3.644,3.6487,3.6487,3.6487,3.6487,3.6486,0,3.6926,3.6902,3.6884,3.685,3.6834,3.6805,3.6775,3.6763,3.6746,3.6716,3.6695,3.6668,3.6643,3.6601,3.6572,3.6566,3.6549,3.656,3.6559,3.6554,3.6504,3.6505,3.6574,3.6574,3.6574,3.6574,3.6574,3.6574,3.6957,3.6949,3.6925,3.6905,3.688,3.6861,3.6846,3.6824,3.68,3.6773,3.6753,3.6726,3.669,3.6658,3.6634,3.6622,3.6613,3.6629,3.6612,3.6566,3.6557,3.655,3.6551,3.6627,3.6627,3.6663,3.6663,3.6663]}]]